Weather History for Flagstaff, AZ

Change the Weather History Date:

Tuesday, August 27, 2013

  Actual Average Record
Temperature  
Mean Temperature 62 °F 63 °F  
Max Temperature 71 °F 77 °F 88 °F (1944)
Min Temperature 52 °F 48 °F 36 °F (1978)
Degree Days  
Heating Degree Days 3 3  
Month to date heating degree days 42 44  
Since 1 July heating degree days 51 76  
Cooling Degree Days 0 1  
Month to date cooling degree days 19 34  
Year to date cooling degree days 144 115  
Growing Degree Days 11 (Base 50)    
Moisture  
Dew Point 55 °F    
Average Humidity 83    
Maximum Humidity 100    
Minimum Humidity 66    
Precipitation  
Precipitation 0.53 in 0.09 in 0.90 in (2007)
Month to date precipitation 3.27 2.74  
Year to date precipitation 16.10 13.82  
Snow  
Snow 0.00 in 0.00 in 0.00 in (2002)
Month to date snowfall 0.0 0.0  
Since 1 July snowfall 0.0 0.0  
Snow Depth 0.00 in    
Sea Level Pressure  
Sea Level Pressure 30.13 in    
Wind  
Wind Speed 4 mph (East)    
Max Wind Speed 17 mph    
Max Gust Speed 22 mph    
Visibility 8 miles    
Events Rain , Thunderstorm    
T = Trace of Precipitation, MM = Missing Value Source: NWS Daily Summary

Daily Weather History Graph

Daily Weather History Graph

Search for Another Location

Airport:

Trip Planner

Search our weather history database for the weather conditions in past years. The results will help you decide how hot, cold, wet, or windy it might be!

Date:

Astronomy

Aug. 27, 2013 Rise Set
Actual Time 5:55 AM MST 6:59 PM MST
Civil Twilight 5:29 AM MST 7:25 PM MST
Nautical Twilight 4:58 AM MST 7:56 PM MST
Astronomical Twilight 4:26 AM MST 8:28 PM MST
Moon 11:12 PM MST (8/27) 12:40 PM MST (8/27)
Length of Visible Light 13h 56m
Length of Day
13h 04m
Waning Gibbous, 56% of the Moon is Illuminated
Aug 27
Waning Gibbous
Aug 28
Last Quarter
Sep 5
New
Sep 12
First Quarter
Sep 19
Full

Hourly Weather History & Observations

Time (MST) Temp. Dew Point Humidity Pressure Visibility Wind Dir Wind Speed Gust Speed Precip Events Conditions
12:57 AM 55.9 °F 55.0 °F 97% 30.06 in 8.0 mi Calm Calm - N/A   Scattered Clouds
1:57 AM 54.0 °F 53.1 °F 97% 30.07 in 5.0 mi Calm Calm - N/A   Partly Cloudy
2:23 AM 53.6 °F 53.6 °F 100% 30.31 in 2.5 mi Calm Calm - N/A   Mostly Cloudy
2:28 AM 53.6 °F 53.6 °F 100% 30.31 in 0.8 mi Calm Calm - N/A   Mostly Cloudy
2:57 AM 53.1 °F 52.0 °F 96% 30.06 in 1.2 mi NE 3.5 mph - N/A   Mostly Cloudy
3:03 AM 53.6 °F 51.8 °F 94% 30.31 in 3.0 mi NE 3.5 mph - N/A   Scattered Clouds
3:57 AM 53.1 °F 52.0 °F 96% 30.05 in 10.0 mi East 3.5 mph - N/A   Clear
4:57 AM 54.0 °F 53.1 °F 97% 30.03 in 10.0 mi East 4.6 mph - N/A   Clear
5:57 AM 55.0 °F 54.0 °F 96% 30.06 in 10.0 mi NNW 3.5 mph - N/A   Overcast
6:57 AM 57.9 °F 55.0 °F 90% 30.07 in 10.0 mi Variable 3.5 mph - N/A   Mostly Cloudy
7:57 AM 60.1 °F 55.0 °F 83% 30.07 in 10.0 mi East 6.9 mph - N/A   Mostly Cloudy
8:57 AM 62.1 °F 55.9 °F 80% 30.08 in 10.0 mi ENE 4.6 mph - N/A   Scattered Clouds
9:57 AM 64.0 °F 57.0 °F 78% 30.08 in 10.0 mi East 9.2 mph - N/A   Partly Cloudy
10:36 AM 66.2 °F 57.2 °F 73% 30.34 in 10.0 mi ENE 8.1 mph - N/A   Mostly Cloudy
10:57 AM 66.9 °F 57.0 °F 70% 30.06 in 10.0 mi ENE 5.8 mph - N/A   Mostly Cloudy
11:11 AM 68.0 °F 57.2 °F 68% 30.33 in 10.0 mi East 8.1 mph - N/A   Scattered Clouds
11:57 AM 69.1 °F 57.0 °F 65% 30.03 in 10.0 mi East 9.2 mph - N/A   Clear
12:17 PM 68.0 °F 57.2 °F 68% 30.31 in 10.0 mi NE 5.8 mph - N/A Thunderstorm Thunderstorm
12:52 PM 59.0 °F 51.8 °F 77% 30.33 in 10.0 mi SSW 13.8 mph 18.4 mph 0.00 in Thunderstorm Thunderstorm
12:57 PM 57.9 °F 53.1 °F 84% 30.10 in 10.0 mi SSW 17.3 mph 21.9 mph 0.00 in Thunderstorm Thunderstorm
1:10 PM 57.2 °F 53.6 °F 88% 30.33 in 1.8 mi South 11.5 mph - 0.08 in Rain , Thunderstorm Heavy Thunderstorms and Rain
1:32 PM 57.2 °F 55.4 °F 94% 30.33 in 4.0 mi SSE 8.1 mph - 0.30 in Rain , Thunderstorm Thunderstorms and Rain
1:57 PM 57.9 °F 55.0 °F 90% 30.09 in 4.0 mi Calm Calm - 0.35 in Rain , Thunderstorm Light Thunderstorms and Rain
2:57 PM 57.9 °F 55.9 °F 93% 30.07 in 10.0 mi NNE 5.8 mph - 0.18 in Thunderstorm Thunderstorm
3:01 PM 57.2 °F 55.4 °F 94% 30.30 in 9.0 mi East 4.6 mph - 0.00 in Rain , Thunderstorm Light Thunderstorms and Rain
3:57 PM 64.0 °F 57.0 °F 78% 30.03 in 10.0 mi NNE 3.5 mph - 0.00 in Thunderstorm Thunderstorm
4:57 PM 66.0 °F 55.9 °F 70% 30.03 in 10.0 mi ESE 9.2 mph 16.1 mph N/A Thunderstorm Thunderstorm
5:57 PM 62.1 °F 55.0 °F 78% 30.01 in 10.0 mi North 4.6 mph - N/A Thunderstorm Thunderstorm
6:57 PM 59.0 °F 57.0 °F 93% 30.01 in 10.0 mi Calm Calm - N/A   Clear
7:57 PM 57.0 °F 55.0 °F 93% 30.02 in 10.0 mi SW 4.6 mph - N/A   Mostly Cloudy
8:57 PM 57.0 °F 54.0 °F 89% 30.04 in 10.0 mi WSW 3.5 mph - N/A   Overcast
9:57 PM 55.0 °F 54.0 °F 96% 30.04 in 10.0 mi Calm Calm - N/A   Scattered Clouds
10:57 PM 54.0 °F 52.0 °F 93% 30.04 in 10.0 mi Calm Calm - N/A   Overcast
11:57 PM 53.1 °F 51.1 °F 93% 30.03 in 10.0 mi Calm Calm - N/A   Partly Cloudy